Location: Lane
(33.5226°N, 79.8788°W)
Time: 16:37:01
(UTC+00:00)

Tiros 1 despin weight - Visible Passes

Search period start: 26 September 2022 00:00
Search period end: 06 October 2022 00:00
Orbit: 590 x 639 km, 48.2° (Epoch: 23 September)

Date Brightness Start Highest point End Pass type
(mag) Time Alt. Az. Time Alt. Az. Time Alt. Az.
26 Sep ? 00:42:53 10° W 00:46:40 25° NNW 00:50:04 12° NNE visible
27 Sep ? 00:59:22 10° WNW 01:02:29 18° NNW 01:04:53 13° NNE visible
27 Sep ? 23:31:43 10° W 23:35:49 33° NNW 23:40:00 10° NE visible
28 Sep ? 01:15:58 10° NW 01:18:25 14° N 01:19:37 13° N visible
28 Sep ? 23:48:01 10° WNW 23:51:33 22° NNW 23:55:08 10° NNE visible
29 Sep ? 01:32:22 10° NNW 01:34:17 13° N 01:34:17 13° N visible
30 Sep ? 00:04:34 10° NW 00:07:25 16° NNW 00:10:16 10° NNE visible
30 Sep ? 01:48:10 10° NNW 01:48:55 12° NNW 01:48:55 12° NNW visible
01 Oct ? 00:21:09 10° NW 00:23:21 13° N 00:25:35 10° NNE visible
01 Oct ? 02:03:31 10° NNW 02:03:31 10° NNW 02:03:31 10° NNW visible
02 Oct ? 00:37:21 10° NNW 00:39:21 13° N 00:41:08 11° NNE visible
03 Oct ? 00:52:56 10° NNW 00:55:20 14° N 00:55:43 14° NNE visible
03 Oct ? 23:26:15 10° NNW 23:28:16 13° N 23:30:18 10° NNE visible
04 Oct ? 01:08:10 10° NNW 01:10:19 17° N 01:10:19 17° N visible
04 Oct ? 23:42:14 10° NNW 23:44:15 13° N 23:46:18 10° NNE visible
05 Oct ? 01:23:15 10° NNW 01:24:56 18° NNW 01:24:56 18° NNW visible
